Time,TemperatureF,DewpointF,PressureIn,WindDirection,WindDirectionDegrees,WindSpeedMPH,WindSpeedGustMPH,Humidity,HourlyPrecipIn,Conditions,Clouds,dailyrainin,SoftwareType,DateUTC
2013-01-16 00:03:00,21.5,18.5,29.78,ENE,68,0.0,0.0,88,0.00,,,0.00,WUHU216HW,2013-01-16 09:03:00,
2013-01-16 00:08:00,21.5,18.5,29.78,ENE,68,0.0,0.0,88,0.00,,,0.00,WUHU216HW,2013-01-16 09:08:00,
2013-01-16 00:13:00,21.5,18.5,29.78,ENE,68,0.0,0.0,88,0.00,,,0.00,WUHU216HW,2013-01-16 09:13:00,
2013-01-16 00:18:00,21.7,18.6,29.79,ENE,68,0.0,0.0,88,0.00,,,0.00,WUHU216HW,2013-01-16 09:18:00,
2013-01-16 00:23:00,21.9,18.8,29.78,ENE,68,0.0,0.0,88,0.00,,,0.00,WUHU216HW,2013-01-16 09:23:00,
2013-01-16 00:28:00,21.9,18.8,29.78,ENE,68,0.0,0.0,88,0.00,,,0.00,WUHU216HW,2013-01-16 09:28:00,
2013-01-16 00:33:00,21.9,18.8,29.78,ENE,68,0.0,0.0,88,0.00,,,0.00,WUHU216HW,2013-01-16 09:33:00,
2013-01-16 00:38:00,21.9,18.8,29.78,ENE,68,0.0,0.0,88,0.00,,,0.00,WUHU216HW,2013-01-16 09:38:00,
2013-01-16 00:43:00,21.9,18.8,29.78,ENE,68,0.0,0.0,88,0.00,,,0.00,WUHU216HW,2013-01-16 09:43:00,
2013-01-16 00:48:00,21.9,18.8,29.78,ENE,68,0.0,0.0,88,0.00,,,0.00,WUHU216HW,2013-01-16 09:48:00,
2013-01-16 00:53:00,21.9,18.8,29.78,ENE,68,0.0,0.0,88,0.00,,,0.00,WUHU216HW,2013-01-16 09:53:00,
2013-01-16 00:58:00,21.9,18.8,29.78,ENE,68,0.0,0.0,88,0.00,,,0.00,WUHU216HW,2013-01-16 09:58:00,
2013-01-16 01:03:00,22.1,19.0,29.78,ENE,68,0.0,0.0,88,0.00,,,0.00,WUHU216HW,2013-01-16 10:03:00,
2013-01-16 01:08:00,22.1,19.0,29.78,ENE,68,0.0,0.0,88,0.00,,,0.00,WUHU216HW,2013-01-16 10:08:00,
2013-01-16 01:13:00,22.1,19.0,29.78,ENE,68,0.0,0.0,88,0.00,,,0.00,WUHU216HW,2013-01-16 10:13:00,
2013-01-16 01:18:00,22.2,19.2,29.78,ENE,68,0.0,0.0,88,0.00,,,0.00,WUHU216HW,2013-01-16 10:18:00,
2013-01-16 01:23:00,22.2,19.2,29.78,ENE,68,0.0,0.0,88,0.00,,,0.00,WUHU216HW,2013-01-16 10:23:00,
2013-01-16 01:28:00,22.2,19.2,29.78,NE,45,0.0,0.0,88,0.00,,,0.00,WUHU216HW,2013-01-16 10:28:00,
2013-01-16 01:33:00,22.4,19.4,29.78,NE,45,0.0,0.0,88,0.00,,,0.00,WUHU216HW,2013-01-16 10:33:00,
2013-01-16 01:38:00,22.6,19.5,29.77,NE,45,0.0,0.0,88,0.00,,,0.00,WUHU216HW,2013-01-16 10:38:00,
2013-01-16 01:43:00,22.6,19.5,29.77,NE,45,0.0,0.0,88,0.00,,,0.00,WUHU216HW,2013-01-16 10:43:00,
2013-01-16 01:48:00,22.6,19.5,29.77,NE,45,0.0,0.0,88,0.00,,,0.00,WUHU216HW,2013-01-16 10:48:00,
2013-01-16 01:53:00,22.8,19.7,29.77,NE,45,0.0,0.0,88,0.00,,,0.00,WUHU216HW,2013-01-16 10:53:00,
2013-01-16 01:58:00,22.8,19.7,29.77,NE,45,0.0,0.0,88,0.00,,,0.00,WUHU216HW,2013-01-16 10:58:00,
2013-01-16 02:03:00,22.8,19.7,29.77,NE,45,0.0,0.0,88,0.00,,,0.00,WUHU216HW,2013-01-16 11:03:00,
2013-01-16 02:08:00,22.8,19.7,29.76,NE,45,0.0,0.0,88,0.00,,,0.00,WUHU216HW,2013-01-16 11:08:00,
2013-01-16 02:13:00,22.8,19.7,29.76,NE,45,0.0,0.0,88,0.00,,,0.00,WUHU216HW,2013-01-16 11:13:00,
2013-01-16 02:18:00,22.8,19.7,29.76,NE,45,0.0,0.0,88,0.00,,,0.00,WUHU216HW,2013-01-16 11:18:00,
2013-01-16 02:23:00,22.8,19.7,29.76,NE,45,0.0,0.0,88,0.00,,,0.00,WUHU216HW,2013-01-16 11:23:00,
2013-01-16 02:28:00,22.8,19.7,29.75,NE,45,0.0,0.0,88,0.00,,,0.00,WUHU216HW,2013-01-16 11:28:00,
2013-01-16 02:33:00,22.8,19.7,29.76,ENE,68,0.0,0.0,88,0.00,,,0.00,WUHU216HW,2013-01-16 11:33:00,
2013-01-16 02:38:00,22.8,19.7,29.76,East,90,0.0,0.0,88,0.00,,,0.00,WUHU216HW,2013-01-16 11:38:00,
2013-01-16 02:43:00,22.8,19.7,29.75,ENE,68,0.0,0.0,88,0.00,,,0.00,WUHU216HW,2013-01-16 11:43:00,
2013-01-16 02:48:00,22.8,19.7,29.75,ENE,68,0.0,0.0,88,0.00,,,0.00,WUHU216HW,2013-01-16 11:48:00,
2013-01-16 02:53:00,22.8,19.7,29.74,ENE,68,0.0,0.0,88,0.00,,,0.00,WUHU216HW,2013-01-16 11:53:00,
2013-01-16 02:58:00,23.1,20.1,29.74,NE,45,0.0,0.0,88,0.00,,,0.00,WUHU216HW,2013-01-16 11:58:00,
2013-01-16 03:03:00,23.1,20.1,29.74,NE,45,0.0,0.0,88,0.00,,,0.00,WUHU216HW,2013-01-16 12:03:00,
2013-01-16 03:08:00,23.1,20.1,29.73,NE,45,0.0,0.0,88,0.00,,,0.00,WUHU216HW,2013-01-16 12:08:00,
2013-01-16 03:13:00,23.3,20.3,29.73,NE,45,0.0,0.0,88,0.00,,,0.00,WUHU216HW,2013-01-16 12:13:00,
2013-01-16 03:18:00,23.1,20.1,29.72,NNE,23,0.0,0.0,88,0.00,,,0.00,WUHU216HW,2013-01-16 12:18:00,
2013-01-16 03:23:00,23.3,20.3,29.72,NNE,23,0.0,0.0,88,0.00,,,0.00,WUHU216HW,2013-01-16 12:23:00,
2013-01-16 03:28:00,23.1,19.8,29.72,ENE,68,0.0,0.0,87,0.00,,,0.00,WUHU216HW,2013-01-16 12:28:00,
2013-01-16 03:33:00,23.1,19.8,29.72,NE,45,0.0,0.0,87,0.00,,,0.00,WUHU216HW,2013-01-16 12:33:00,
2013-01-16 03:38:00,23.0,19.6,29.72,NE,45,0.0,0.0,87,0.00,,,0.00,WUHU216HW,2013-01-16 12:38:00,
2013-01-16 03:43:00,22.8,19.4,29.72,NE,45,0.0,0.0,87,0.00,,,0.00,WUHU216HW,2013-01-16 12:43:00,
2013-01-16 03:48:00,22.8,19.4,29.72,NE,45,0.0,0.0,87,0.00,,,0.00,WUHU216HW,2013-01-16 12:48:00,
2013-01-16 03:53:00,23.0,19.6,29.72,NE,45,0.0,0.0,87,0.00,,,0.00,WUHU216HW,2013-01-16 12:53:00,
2013-01-16 03:58:00,23.0,19.9,29.72,NE,45,0.0,0.0,88,0.00,,,0.00,WUHU216HW,2013-01-16 12:58:00,
2013-01-16 04:03:00,23.1,20.1,29.71,NE,45,0.0,0.0,88,0.00,,,0.00,WUHU216HW,2013-01-16 13:03:00,
2013-01-16 04:08:00,23.1,20.1,29.71,NE,45,0.0,0.0,88,0.00,,,0.00,WUHU216HW,2013-01-16 13:08:00,
2013-01-16 04:13:00,23.3,20.3,29.71,NE,45,0.0,0.0,88,0.00,,,0.00,WUHU216HW,2013-01-16 13:13:00,
2013-01-16 04:18:00,23.3,20.3,29.71,NE,45,0.0,0.0,88,0.00,,,0.00,WUHU216HW,2013-01-16 13:18:00,
2013-01-16 04:20:00,23.3,20.3,29.71,NE,45,0.0,0.0,88,0.00,,,0.00,WUHU216HW,2013-01-16 13:20:00,
2013-01-16 04:26:00,23.3,20.0,29.70,NE,45,0.0,0.0,87,0.00,,,0.00,WUHU216HW,2013-01-16 13:26:00,
2013-01-16 04:32:00,23.5,20.2,29.69,NE,45,0.0,0.0,87,0.00,,,0.00,WUHU216HW,2013-01-16 13:32:00,
2013-01-16 04:37:00,23.5,20.2,29.69,ENE,68,0.0,0.0,87,0.00,,,0.00,WUHU216HW,2013-01-16 13:37:00,
2013-01-16 04:43:00,23.5,20.2,29.68,NE,45,0.0,1.5,87,0.00,,,0.00,WUHU216HW,2013-01-16 13:43:00,
2013-01-16 04:48:00,23.5,20.2,29.68,NE,45,0.0,1.5,87,0.00,,,0.00,WUHU216HW,2013-01-16 13:48:00,
2013-01-16 04:54:00,23.5,20.2,29.67,NE,45,0.0,0.0,87,0.00,,,0.00,WUHU216HW,2013-01-16 13:54:00,
2013-01-16 04:59:00,23.7,20.3,29.67,North,0,0.0,0.6,87,0.00,,,0.00,WUHU216HW,2013-01-16 13:59:00,
2013-01-16 05:05:00,23.7,20.3,29.66,NE,45,0.0,0.6,87,0.00,,,0.00,WUHU216HW,2013-01-16 14:05:00,
2013-01-16 05:10:00,23.7,20.3,29.66,North,0,0.0,0.0,87,0.00,,,0.00,WUHU216HW,2013-01-16 14:10:00,
2013-01-16 05:16:00,23.7,20.3,29.66,NNE,23,1.3,1.3,87,0.00,,,0.00,WUHU216HW,2013-01-16 14:16:00,
2013-01-16 05:21:00,23.9,20.5,29.66,NNE,23,0.0,1.3,87,0.00,,,0.00,WUHU216HW,2013-01-16 14:21:00,
2013-01-16 05:27:00,23.9,20.5,29.65,NNE,23,0.0,7.8,87,0.00,,,0.00,WUHU216HW,2013-01-16 14:27:00,
2013-01-16 05:32:00,23.9,20.5,29.65,NNE,23,0.0,7.8,87,0.00,,,0.00,WUHU216HW,2013-01-16 14:32:00,
2013-01-16 05:38:00,24.0,20.7,29.65,NNE,23,0.0,4.6,87,0.00,,,0.00,WUHU216HW,2013-01-16 14:38:00,
2013-01-16 05:44:00,24.0,20.7,29.65,NE,45,0.0,0.0,87,0.00,,,0.00,WUHU216HW,2013-01-16 14:44:00,
2013-01-16 05:49:00,24.0,20.7,29.64,North,0,0.0,0.0,87,0.00,,,0.00,WUHU216HW,2013-01-16 14:49:00,
2013-01-16 05:55:00,24.0,20.7,29.64,North,0,0.0,0.0,87,0.00,,,0.00,WUHU216HW,2013-01-16 14:55:00,
2013-01-16 06:00:00,24.2,20.9,29.64,North,0,0.0,0.0,87,0.00,,,0.00,WUHU216HW,2013-01-16 15:00:00,
2013-01-16 06:06:00,24.2,20.9,29.64,North,0,0.0,0.0,87,0.00,,,0.00,WUHU216HW,2013-01-16 15:06:00,
2013-01-16 06:11:00,24.4,21.1,29.64,North,0,0.0,0.0,87,0.00,,,0.00,WUHU216HW,2013-01-16 15:11:00,
2013-01-16 06:17:00,24.4,21.1,29.63,North,0,0.0,0.0,87,0.00,,,0.00,WUHU216HW,2013-01-16 15:17:00,
2013-01-16 06:22:00,24.4,21.1,29.63,North,0,0.0,0.0,87,0.00,,,0.00,WUHU216HW,2013-01-16 15:22:00,
2013-01-16 06:28:00,24.4,21.1,29.63,North,0,0.0,0.0,87,0.00,,,0.00,WUHU216HW,2013-01-16 15:28:00,
2013-01-16 06:33:00,24.4,21.1,29.62,NNE,23,0.0,0.0,87,0.00,,,0.00,WUHU216HW,2013-01-16 15:33:00,
2013-01-16 06:39:00,24.4,21.1,29.62,North,0,0.0,0.0,87,0.00,,,0.00,WUHU216HW,2013-01-16 15:39:00,
2013-01-16 06:44:00,24.4,21.1,29.62,NNE,23,2.2,2.2,87,0.00,,,0.00,WUHU216HW,2013-01-16 15:44:00,
2013-01-16 06:50:00,24.4,21.1,29.62,NNE,23,0.0,2.2,87,0.00,,,0.00,WUHU216HW,2013-01-16 15:50:00,
2013-01-16 06:55:00,24.2,20.9,29.61,NNE,23,0.0,0.0,87,0.00,,,0.00,WUHU216HW,2013-01-16 15:55:00,
2013-01-16 07:00:00,24.4,21.1,29.61,NE,45,0.0,0.0,87,0.00,,,0.00,WUHU216HW,2013-01-16 16:00:00,
2013-01-16 07:06:00,24.0,20.7,29.61,NNE,23,0.0,0.0,87,0.00,,,0.00,WUHU216HW,2013-01-16 16:06:00,
2013-01-16 07:11:00,24.0,20.7,29.61,NE,45,0.0,0.0,87,0.00,,,0.00,WUHU216HW,2013-01-16 16:11:00,
2013-01-16 07:17:00,24.0,20.7,29.61,NNE,23,0.0,0.0,87,0.00,,,0.00,WUHU216HW,2013-01-16 16:17:00,
2013-01-16 07:22:00,23.9,20.5,29.61,NE,45,3.8,3.8,87,0.00,,,0.00,WUHU216HW,2013-01-16 16:22:00,
2013-01-16 07:28:00,23.9,20.5,29.61,NNE,23,0.0,3.8,87,0.00,,,0.00,WUHU216HW,2013-01-16 16:28:00,
2013-01-16 07:33:00,23.9,20.5,29.61,NNE,23,0.0,0.6,87,0.00,,,0.00,WUHU216HW,2013-01-16 16:33:00,
2013-01-16 07:39:00,23.7,20.3,29.61,NNE,23,0.0,0.0,87,0.00,,,0.00,WUHU216HW,2013-01-16 16:39:00,
2013-01-16 07:44:00,23.7,20.3,29.61,North,0,6.9,6.9,87,0.00,,,0.00,WUHU216HW,2013-01-16 16:44:00,
2013-01-16 07:50:00,23.7,20.4,29.61,North,0,0.0,6.9,87,0.00,,,0.00,WUHU216HW,2013-01-16 16:50:00,
2013-01-16 07:55:00,23.5,20.2,29.61,North,0,0.0,2.6,87,0.00,,,0.00,WUHU216HW,2013-01-16 16:55:00,
2013-01-16 08:00:00,23.5,20.2,29.61,North,0,0.0,0.0,87,0.00,,,0.00,WUHU216HW,2013-01-16 17:00:00,
2013-01-16 08:06:00,23.5,20.2,29.61,North,0,0.0,0.0,87,0.00,,,0.00,WUHU216HW,2013-01-16 17:06:00,
2013-01-16 08:12:00,23.5,20.2,29.61,North,0,0.0,0.0,87,0.00,,,0.00,WUHU216HW,2013-01-16 17:12:00,
2013-01-16 08:18:00,23.5,20.2,29.61,NW,315,0.0,0.0,87,0.00,,,0.00,WUHU216HW,2013-01-16 17:18:00,
2013-01-16 08:23:00,23.5,20.2,29.61,North,0,0.0,0.0,87,0.00,,,0.00,WUHU216HW,2013-01-16 17:23:00,
2013-01-16 08:29:00,23.3,20.0,29.60,NNE,23,0.0,0.0,87,0.00,,,0.00,WUHU216HW,2013-01-16 17:29:00,
2013-01-16 08:34:00,23.1,19.8,29.60,North,0,0.0,0.0,87,0.00,,,0.00,WUHU216HW,2013-01-16 17:34:00,
2013-01-16 08:39:00,23.1,19.8,29.60,North,0,0.0,0.0,87,0.00,,,0.00,WUHU216HW,2013-01-16 17:39:00,
2013-01-16 08:46:00,23.0,19.6,29.60,North,0,0.0,0.0,87,0.00,,,0.00,WUHU216HW,2013-01-16 17:46:00,
2013-01-16 08:51:00,22.8,19.4,29.60,North,0,0.0,0.0,87,0.00,,,0.00,WUHU216HW,2013-01-16 17:51:00,
2013-01-16 08:56:00,22.8,19.4,29.60,NNW,338,0.0,0.0,87,0.00,,,0.00,WUHU216HW,2013-01-16 17:56:00,
2013-01-16 09:01:00,22.8,19.4,29.60,NNE,23,0.0,0.0,87,0.00,,,0.00,WUHU216HW,2013-01-16 18:01:00,
2013-01-16 09:06:00,22.8,19.4,29.60,NNE,23,0.0,0.0,87,0.00,,,0.00,WUHU216HW,2013-01-16 18:06:00,
2013-01-16 09:11:00,22.6,19.3,29.60,North,0,0.0,0.0,87,0.00,,,0.00,WUHU216HW,2013-01-16 18:11:00,
2013-01-16 09:16:00,22.6,19.5,29.60,North,0,0.0,0.0,88,0.00,,,0.00,WUHU216HW,2013-01-16 18:16:00,
2013-01-16 09:21:00,22.6,19.5,29.60,NNE,23,0.0,0.0,88,0.00,,,0.00,WUHU216HW,2013-01-16 18:21:00,
2013-01-16 09:26:00,22.6,19.5,29.60,North,0,0.0,0.0,88,0.00,,,0.00,WUHU216HW,2013-01-16 18:26:00,
2013-01-16 09:32:00,22.4,19.4,29.59,NNE,23,0.0,0.0,88,0.00,,,0.00,WUHU216HW,2013-01-16 18:32:00,
2013-01-16 09:38:00,22.4,19.4,29.59,NNE,23,0.0,0.0,88,0.00,,,0.00,WUHU216HW,2013-01-16 18:38:00,
2013-01-16 09:43:00,22.2,19.2,29.59,NNE,23,0.0,0.0,88,0.00,,,0.00,WUHU216HW,2013-01-16 18:43:00,
2013-01-16 09:48:00,22.2,19.2,29.59,NW,315,0.0,0.0,88,0.00,,,0.00,WUHU216HW,2013-01-16 18:48:00,
2013-01-16 09:53:00,22.2,19.2,29.59,NNE,23,0.0,0.0,88,0.00,,,0.00,WUHU216HW,2013-01-16 18:53:00,
2013-01-16 09:58:00,22.2,19.2,29.59,NE,45,0.0,0.0,88,0.00,,,0.00,WUHU216HW,2013-01-16 18:58:00,
2013-01-16 10:03:00,22.2,19.2,29.59,NE,45,0.0,0.0,88,0.00,,,0.00,WUHU216HW,2013-01-16 19:03:00,
2013-01-16 10:08:00,22.2,19.2,29.58,NNE,23,0.0,0.0,88,0.00,,,0.00,WUHU216HW,2013-01-16 19:08:00,
2013-01-16 10:13:00,22.2,19.2,29.58,NNE,23,0.0,0.0,88,0.00,,,0.00,WUHU216HW,2013-01-16 19:13:00,
2013-01-16 10:18:00,22.2,19.2,29.57,NNE,23,0.0,0.0,88,0.00,,,0.00,WUHU216HW,2013-01-16 19:18:00,
2013-01-16 10:23:00,22.2,19.2,29.57,NNE,23,0.0,0.0,88,0.00,,,0.00,WUHU216HW,2013-01-16 19:23:00,
2013-01-16 10:28:00,22.2,19.2,29.57,NNE,23,0.0,0.0,88,0.00,,,0.00,WUHU216HW,2013-01-16 19:28:00,
2013-01-16 10:33:00,22.2,19.2,29.57,NNE,23,0.0,0.0,88,0.00,,,0.00,WUHU216HW,2013-01-16 19:33:00,
2013-01-16 10:38:00,22.2,19.2,29.57,NNE,23,0.0,0.0,88,0.00,,,0.00,WUHU216HW,2013-01-16 19:38:00,
2013-01-16 10:43:00,22.4,19.4,29.57,NNE,23,0.0,0.0,88,0.00,,,0.00,WUHU216HW,2013-01-16 19:43:00,
2013-01-16 10:48:00,22.2,19.2,29.56,NNE,23,0.0,0.0,88,0.00,,,0.00,WUHU216HW,2013-01-16 19:48:00,
2013-01-16 10:53:00,22.4,19.4,29.56,NNE,23,0.0,0.0,88,0.00,,,0.00,WUHU216HW,2013-01-16 19:53:00,
2013-01-16 10:58:00,22.4,19.4,29.56,NNE,23,0.0,0.0,88,0.00,,,0.00,WUHU216HW,2013-01-16 19:58:00,
2013-01-16 11:03:00,22.6,19.5,29.56,NNE,23,0.0,0.0,88,0.00,,,0.00,WUHU216HW,2013-01-16 20:03:00,
2013-01-16 11:09:00,22.6,19.5,29.56,NNE,23,0.0,0.0,88,0.00,,,0.00,WUHU216HW,2013-01-16 20:09:00,
2013-01-16 11:14:00,22.6,19.5,29.56,North,0,0.0,0.0,88,0.00,,,0.00,WUHU216HW,2013-01-16 20:14:00,
2013-01-16 11:19:00,22.4,19.4,29.56,North,0,0.0,0.0,88,0.00,,,0.00,WUHU216HW,2013-01-16 20:19:00,
2013-01-16 11:24:00,22.4,19.4,29.56,North,0,0.0,0.0,88,0.00,,,0.00,WUHU216HW,2013-01-16 20:24:00,
2013-01-16 11:29:00,22.6,19.5,29.55,North,0,0.0,0.0,88,0.00,,,0.00,WUHU216HW,2013-01-16 20:29:00,